CZ-6A DEB, 54424

Orbit data source: Space-Track

CZ-6A DEB, 54424 is space debris in SSO originally from a launch on Fri, 11 Nov 2022 UTC launched from the Taiyaun Space Center, China (TSC). Debris objects in space refer to the collection of defunct objects orbiting the Earth. Examples of debris include non-operational satellites, rocket bodies, and fragments generated from explosions, collisions, or faulty payload assembly.

Loading next visibility...
Identifier
54424, 2022-151EY
Orbit
SSO
Country
Flag of CNCN / PRC
Related business
Manufacturer
SAST
Mission
Spacecraft
Bus & Motor
Unknown
Mass
Unknown
Launch date (UTC)
2022-11-11 (4 years ago)
Launch vehicle
Unknown
Launch site
Taiyaun Space Center, China (TSC)
Object type
Payload
Rocket body
Debris
Shape & HBR
Unknown shape, 0.6 m
Radar Cross Section
Medium (>0.1 m² and <1 m²)

Expand to show TLE details & history
Last TLE update: 8 hours ago

TLE from 8 hours ago
0 CZ-6A DEB
1 54424U 22151EY  26265.54185935  .00000195  00000-0  15400-3 0  9999
2 54424  98.9760 259.0905 0106225 115.0555 246.1681 13.99867651196973
Epoch: 2026-09-22T13:00Z
TLE epoch observation values (Epoch: 2026-09-22T13:00:16.647Z)
Latitude
-0.00005°
Longitude
62.6153°
Altitude
929.035 km
Speed
7.371 km/s
True Right ascension
17h 16m 21s
True Declination
0° 00' 00"
Sunlit
Object was in daylight at epoch
Visualization orbit readout
Latitude
Unknown
Longitude
Unknown
Altitude
Unknown
Speed
Unknown
Apparent Right ascension
Unknown
Apparent Declination
Unknown
Sunlit
N/A
Visualization observer readout
Local Sidereal Time
13:42:44
Azimuth
Unknown
Elevation
Unknown
Doppler factor
Unknown
Orbital elements
Apogee altitude
968.673 km
Perigee altitude
814.23 km
Semi-major axis
7,269.588 km
Eccentricity
0.01062
Inclination
98.976°
RAAN
259.0905°
Arg. of periapsis
115.0555°
True anomaly
245.06065°
Mean anomaly
246.1681°
Eccentric anomaly
245.61378°
Mean motion
3.5017 °/min
Orbital period
102.81 mins
BSTAR
0.000154
Loading maneuver chart data...
Computing Atmospheric mass density...
Loading historical data...
Loading historical data...
Loading historical data...
Loading historical data...
Loading historical data...
Loading historical data...
Loading historical data...

Documentation

Showing up to 5 results
|